STARLINK-3808 (52366 NORAD) Tracking and Keplerian Element Data
This shows tracking and keplerian element data for the satellite.
Feedback or suggestion? Click here.
Element | Value |
Catalog | 52366 |
Name | STARLINK-3808 |
Epoch Orbit | 130 |
Epoch Day | 167.08334491 |
Epoch Year | 2022 |
RAAN | 202.6678 |
Inclination | 53.2138 |
Eccentricity | 0.0002891 |
Argument of Perigee | 12.714 |
Mean Anonmoly | 292.1989 |
Mean Motion | 15.73228533 |
Decay Rate | -0.0002248 |
L1 | 1 52366U 22045AM 22167.08334491 -.00022480 00000+0 -15593-3 0 9998 |
L2 | 2 52366 53.2138 202.6678 0002891 12.7140 292.1989 15.73228533 1305 |
Live tracking and technical data element details for STARLINK-3808 (NORAD 52366). STARLINK-3808 can be tracked NOW for your location showing map with azimuth and elevation plus other details from your city location.
Track the satellite on the map from your city or location and see movement details for azimuth, elevation, latitude, longitude, range, height, and movement on the map or in text.
IsCatalogInMostPopularTable: catalog: 52366, numindb: 9
Update: records affected: 1
GetName: 52366 STARLINK-3808
Hit Count: updated at: Sat, 25 Jun 2022 04:49:32 GMT